Wind_Speed
25 25 25 25 26 26 26 26 27 27 28 29 29 28 26 24 23 23 22 20 18 18 18 18 19 19 19 18 19 21 24 27 29 29 29 29 28 27 27 26 28 29 30 30 32 33 35 35 36 36 36 37 38 40 41 42 43 42 40 39 39 39 38 37 39 39 36 35 35 32 27 23 23 25 27 28 28 29 30 30 30 31 32 34 35
25 26 26 26 26 27 27 27 27 27 28 28 28 29 29 27 25 24 23 22 20 19 18 18 19 20 20 20 18 18 20 23 26 28 29 29 29 28 27 26 27 27 27 28 29 30 31 32 32 32 32 33 34 36 38 39 40 41 41 40 40 41 40 40 40 40 38 37 36 35 32 27 25 25 26 28 30 30 31 31 30 30 31 32 34
24 25 25 25 26 27 28 28 27 27 28 28 28 28 29 29 27 25 24 23 22 20 19 18 18 18 19 20 19 18 18 19 22 24 27 29 29 29 27 26 27 27 27 28 28 29 30 31 31 31 31 32 33 34 35 36 37 38 39 40 40 41 41 41 41 41 40 39 37 37 36 34 31 29 28 28 29 30 31 31 30 30 31 31 33
23 24 24 25 27 27 28 28 27 27 28 28 28 28 28 28 28 27 25 23 22 21 20 19 18 18 17 18 19 19 18 18 19 22 24 26 28 29 29 29 29 29 29 30 30 31 32 32 32 32 33 33 33 33 34 34 35 36 37 38 39 40 40 41 41 41 40 39 38 36 37 38 36 34 31 29 29 30 31 32 32 32 32 32 33
22 22 24 25 26 28 29 28 26 26 28 29 29 28 28 28 27 27 26 25 23 22 21 20 19 19 17 16 17 18 18 18 18 20 22 23 25 27 29 30 31 31 31 31 32 32 33 33 32 32 32 33 33 33 33 33 33 34 35 36 37 38 38 39 39 40 40 40 39 36 35 36 36 34 33 31 31 31 31 32 34 34 34 33 33
22 22 23 24 26 27 28 26 26 26 28 29 29 29 29 29 28 27 26 26 25 23 22 21 20 19 19 17 17 17 17 18 18 19 20 21 22 23 24 26 28 29 30 31 32 32 32 32 32 31 31 31 32 31 31 32 32 33 34 34 34 35 36 37 38 38 40 40 39 37 36 36 35 34 33 33 33 33 33 33 34 35 35 36 36
23 23 23 23 26 27 26 25 26 28 28 27 27 29 30 31 31 29 27 27 27 25 23 22 21 20 19 19 18 18 17 17 18 19 19 20 21 22 22 23 23 24 26 27 28 29 30 31 30 30 29 29 29 29 29 30 31 32 32 32 33 34 35 36 37 38 39 40 40 40 39 38 38 37 35 33 32 33 34 33 34 36 37 38 39
24 24 23 24 26 25 24 24 26 28 27 26 26 28 30 31 32 31 29 26 26 26 25 23 22 21 20 19 19 18 18 17 17 18 19 20 21 22 22 22 23 23 24 24 25 25 26 27 27 27 27 28 28 27 28 28 29 29 30 30 31 32 33 34 35 37 38 39 39 39 39 38 39 39 37 35 34 35 34 34 35 36 37 38 38
23 24 24 24 25 24 25 26 27 26 26 26 28 29 31 31 32 32 31 28 26 26 26 24 23 22 21 20 19 18 18 18 17 17 18 19 21 21 22 22 23 23 24 24 24 24 25 25 25 26 26 26 26 27 27 27 28 29 30 30 31 32 32 33 34 35 36 37 38 38 38 39 39 39 39 39 40 39 36 35 35 34 34 34 35
23 24 25 25 25 25 26 27 27 26 25 27 29 30 32 32 31 32 33 31 28 26 26 25 24 23 22 21 19 18 17 16 16 16 16 17 18 19 19 20 21 22 23 23 23 23 24 24 24 25 25 25 26 27 27 28 29 30 30 31 31 32 32 32 33 34 35 36 37 37 37 39 40 39 38 39 39 39 37 36 35 33 32 32 34
24 24 24 25 25 26 28 28 28 26 26 27 30 31 32 33 33 32 32 32 30 28 26 26 24 23 22 21 20 19 17 15 15 15 15 15 16 18 18 17 17 18 19 20 20 21 22 22 23 23 24 24 25 26 27 28 29 30 30 30 31 31 31 32 33 33 34 35 35 35 36 38 38 37 36 36 35 37 37 37 35 34 33 34 35
24 24 24 25 25 26 28 29 29 28 28 29 31 32 33 35 36 34 32 33 32 30 28 26 25 24 23 21 20 19 17 15 14 11 10 11 13 15 15 15 16 16 17 17 17 18 19 19 20 21 22 22 22 23 24 26 27 28 29 29 29 30 30 30 31 31 31 32 33 33 35 35 35 34 34 33 33 34 35 36 35 35 34 35 35
24 24 25 26 26 27 27 28 29 30 30 31 32 33 34 37 38 36 34 33 33 32 29 26 25 24 23 22 20 18 17 15 13 9 8 11 12 11 11 12 13 15 15 16 16 16 17 17 18 19 19 19 19 20 21 22 23 24 25 26 27 28 28 28 29 29 28 29 30 31 31 31 32 32 31 30 30 32 33 34 34 34 34 34 34
25 25 26 26 27 27 28 28 29 30 31 31 33 34 36 39 40 37 35 34 34 33 30 27 25 24 24 22 20 18 17 15 13 10 11 15 16 14 14 13 12 13 14 14 15 15 15 15 16 18 18 17 17 17 18 19 20 21 23 24 25 26 26 27 27 27 27 27 28 29 28 28 29 29 27 27 28 30 31 33 33 33 33 32 31
26 26 27 28 28 28 28 30 31 32 31 31 34 36 38 40 39 36 35 36 35 33 31 28 25 23 23 23 21 18 17 15 13 10 11 14 17 16 15 14 14 15 15 15 15 15 14 14 14 16 17 16 15 16 17 17 18 19 21 22 24 24 25 26 26 26 26 26 28 28 27 26 26 27 26 26 27 28 29 29 29 29 29 28 27
26 26 28 29 29 30 30 31 32 32 31 32 35 37 38 39 37 35 35 36 35 33 31 28 25 22 22 23 21 17 17 16 14 11 9 11 15 15 13 13 14 15 15 16 15 14 14 14 14 16 16 14 14 15 16 15 16 17 19 21 22 23 24 25 24 24 24 24 26 26 26 25 25 26 27 26 26 26 26 27 27 27 27 27 28
26 27 29 30 31 32 32 32 33 33 33 35 36 36 36 37 36 36 36 36 35 32 30 27 24 21 20 21 20 16 17 18 17 15 11 10 13 14 11 12 13 12 12 13 13 12 13 13 13 14 14 13 14 13 14 14 15 16 17 19 20 22 23 24 24 23 22 21 21 22 23 24 24 25 26 26 27 26 27 29 29 28 28 29 30
27 29 30 31 32 33 33 35 36 35 35 35 35 34 35 37 37 36 36 35 34 31 28 25 21 18 16 18 18 16 17 18 18 17 14 11 13 13 10 10 11 9 9 11 10 10 11 10 11 12 11 12 12 11 12 14 15 15 15 17 18 20 21 22 23 23 21 19 18 18 18 19 19 19 19 20 22 23 25 27 27 27 28 30 30
29 30 32 33 34 34 36 36 36 34 34 35 34 34 36 37 38 37 36 34 31 28 26 23 18 15 15 17 17 16 17 18 18 18 17 15 15 15 12 10 9 7 7 8 8 9 9 10 10 11 10 10 10 10 11 13 15 15 15 15 16 18 18 19 20 20 19 19 19 19 19 19 19 18 17 17 19 20 21 21 20 22 24 25 25
30 32 34 36 36 36 35 34 33 32 34 36 36 36 37 37 37 36 34 31 28 25 23 21 20 18 18 18 18 16 16 17 18 18 18 17 16 16 15 12 10 9 8 7 7 7 8 9 11 11 10 10 10 10 11 12 13 13 13 15 16 16 16 17 17 17 16 16 17 19 21 22 22 22 20 19 20 21 22 22 20 20 21 21 20
32 36 38 39 38 35 32 31 31 33 36 37 37 37 36 36 35 33 30 28 25 23 22 21 20 19 18 17 18 17 15 15 17 18 18 17 16 16 16 14 12 11 9 8 8 7 7 10 11 10 10 11 12 12 12 13 13 13 14 14 13 13 14 15 15 15 16 16 16 18 20 22 23 24 24 23 22 22 23 23 22 21 21 21 21
36 38 38 38 35 32 30 29 31 35 38 38 37 37 35 33 31 28 26 25 23 21 20 20 19 17 16 15 15 15 14 13 15 16 17 17 16 15 16 15 12 10 9 9 9 9 10 12 11 9 10 11 12 13 14 14 15 14 13 12 12 12 13 14 14 15 16 16 17 18 19 20 21 23 24 25 25 24 24 24 22 20 20 21 22
38 38 37 35 31 28 27 29 33 37 39 37 35 35 33 29 27 25 23 23 22 20 19 18 16 15 14 13 13 13 12 11 12 13 13 14 13 13 13 13 12 10 10 10 10 11 13 13 11 10 9 8 9 10 12 14 16 15 13 13 14 14 14 13 13 13 14 15 16 17 17 18 18 19 20 21 22 24 25 26 25 23 22 21 22
37 36 33 29 27 27 29 34 38 39 37 34 33 32 29 26 25 24 22 20 20 19 18 15 13 12 12 10 8 10 12 11 10 10 10 10 9 10 10 11 12 11 10 11 11 12 12 11 10 9 8 8 8 10 11 13 15 15 15 16 16 16 16 15 14 13 13 12 13 13 14 15 16 16 17 17 18 19 22 23 24 25 25 24 23
32 32 31 29 29 32 36 38 38 36 33 32 31 29 26 24 23 22 20 18 18 17 16 14 11 11 11 9 6 9 13 12 9 7 8 7 8 9 11 11 11 10 8 8 9 10 10 10 11 10 10 11 12 12 12 13 13 14 15 16 16 17 17 18 18 18 16 15 14 13 13 13 15 16 17 18 18 18 19 20 21 23 24 24 23
30 32 33 33 34 35 37 36 33 31 30 29 29 26 23 21 21 20 18 17 16 15 15 14 10 10 11 9 6 8 13 12 8 6 6 6 7 9 10 10 9 8 7 8 8 9 10 11 11 11 11 11 12 12 12 12 13 13 15 15 16 17 17 16 17 18 18 17 17 16 15 15 16 17 18 19 19 19 20 20 20 21 23 24 24
33 33 32 32 33 34 33 31 28 27 27 26 24 22 21 19 19 18 17 16 15 14 14 13 11 10 10 6 5 9 10 8 5 4 4 5 6 7 8 9 9 8 8 9 9 10 11 11 10 10 10 11 11 11 11 12 12 14 15 15 16 16 16 16 15 16 16 16 17 17 17 18 18 18 19 19 20 20 21 22 21 21 22 23 24
31 30 30 31 32 31 29 27 25 26 26 25 21 19 18 18 18 18 17 15 14 13 12 10 8 7 6 4 6 8 7 3 2 4 5 5 5 6 8 8 8 8 8 9 10 11 10 10 9 9 10 10 10 10 10 10 11 13 14 15 15 16 16 16 16 16 15 15 16 16 17 18 19 19 19 19 19 19 21 21 22 21 21 22 22
30 31 31 30 29 27 25 23 23 25 26 25 21 18 17 17 17 17 16 14 14 13 13 11 8 7 7 8 9 9 5 4 6 8 6 4 4 5 6 6 7 7 7 8 10 10 9 8 9 9 9 10 10 9 8 8 9 11 12 13 14 15 15 16 16 17 17 18 18 19 19 20 21 21 21 20 20 21 21 22 22 23 22 21 21
32 32 29 27 26 24 22 21 23 24 25 23 20 19 18 17 15 15 14 13 12 11 11 10 8 6 7 8 9 9 7 7 9 10 7 3 3 5 6 7 8 8 8 8 10 10 8 8 8 8 8 9 9 8 8 9 10 11 13 14 14 14 14 15 16 17 18 19 19 19 20 21 22 23 23 23 22 23 24 24 24 23 22 21 20
30 28 25 23 24 24 22 21 21 21 19 18 18 19 19 16 12 12 11 10 9 8 7 6 4 7 10 11 11 12 12 11 12 12 9 6 6 9 11 10 10 10 10 11 11 10 8 7 6 6 7 7 7 7 8 9 10 12 13 14 14 14 14 15 15 16 17 17 18 19 19 20 21 22 23 23 23 23 23 23 22 22 21 21 20
27 26 23 22 23 22 20 19 18 17 17 17 18 18 18 15 12 9 8 7 7 8 7 6 4 8 11 12 13 14 13 12 12 13 12 10 12 13 12 10 10 11 11 11 9 8 7 6 5 6 8 8 8 8 9 10 11 12 13 15 16 16 15 15 15 16 16 17 18 19 19 20 20 21 21 21 21 20 20 20 20 20 20 19 19
24 23 21 20 19 18 16 15 15 16 17 18 18 17 16 15 12 10 9 8 7 8 9 10 12 13 14 13 14 14 13 12 13 12 10 9 11 12 10 10 13 13 11 9 8 7 8 8 8 9 11 11 11 12 12 13 13 14 14 16 17 17 17 16 15 15 16 17 18 19 19 19 19 19 20 20 19 19 19 19 19 19 19 19 19
23 21 19 17 16 15 14 15 16 16 17 18 19 18 16 14 12 11 10 10 9 9 10 13 15 16 16 17 17 16 15 16 16 13 10 9 11 12 11 12 13 12 10 9 9 9 9 10 10 11 12 13 15 16 16 16 16 16 16 17 17 18 18 18 17 16 17 17 17 18 19 19 19 19 19 19 19 19 19 20 20 20 20 20 20
22 20 18 16 17 17 18 19 19 20 20 20 20 18 16 15 13 12 11 11 11 11 11 12 13 14 15 16 17 17 17 18 17 14 12 13 14 13 12 11 11 10 10 10 10 10 10 11 12 13 14 15 15 16 17 17 18 18 17 18 19 19 19 19 19 19 19 18 18 19 19 19 19 19 19 19 19 19 18 19 19 19 18 18 19
23 21 18 17 18 19 20 21 21 21 20 20 19 18 16 15 14 13 12 12 12 11 12 13 13 13 13 15 16 15 15 16 15 13 13 15 15 12 10 11 11 11 12 12 11 10 11 12 13 14 15 16 17 18 18 18 18 19 19 19 19 19 20 20 20 19 19 19 19 19 19 19 19 19 18 17 17 17 17 17 17 17 17 17 17
23 22 20 19 20 20 21 21 20 20 20 19 18 17 16 15 14 14 13 13 12 12 12 12 13 13 13 13 14 14 13 14 13 13 14 15 13 11 10 12 12 12 13 12 12 11 11 12 13 14 15 17 18 19 20 19 19 19 19 19 20 19 19 19 18 17 17 16 16 16 16 16 16 16 15 14 15 15 15 15 15 15 15 15 15
22 21 20 21 21 22 23 23 22 21 20 19 18 17 16 15 14 13 13 13 13 13 13 12 12 13 12 13 13 12 12 13 13 12 13 14 13 11 12 12 12 12 12 13 13 13 12 12 13 14 14 16 17 18 19 19 18 18 18 18 19 19 19 18 17 16 15 15 14 15 15 14 14 14 13 13 14 14 14 14 14 13 13 13 13
23 22 21 20 21 23 25 25 23 22 20 19 19 17 16 15 14 14 14 13 13 13 13 13 12 12 12 13 12 11 11 12 13 13 13 13 12 12 12 12 11 12 12 13 14 14 13 13 13 14 14 15 15 16 17 17 17 17 17 17 18 18 18 17 17 16 16 16 15 15 14 13 13 12 12 12 13 13 13 13 12 12 12 12 12
25 24 23 21 22 23 24 24 24 23 21 20 19 17 17 16 15 14 14 14 14 14 14 13 13 12 12 13 12 12 12 13 13 13 13 13 12 12 12 11 11 11 11 12 13 13 12 13 14 14 14 14 14 15 15 16 16 16 15 16 16 16 16 17 17 16 16 16 16 14 13 12 11 10 11 11 12 12 11 11 11 11 11 11 11
25 25 24 23 22 22 23 23 23 22 21 20 20 18 18 17 16 16 16 15 15 15 14 14 14 13 13 13 12 13 13 13 13 13 13 12 12 12 11 11 11 11 11 11 11 12 12 13 13 13 13 13 13 13 14 15 15 15 14 14 15 15 16 16 16 14 14 15 14 12 11 10 9 10 11 11 11 10 10 10 10 10 10 10 10
26 26 26 25 24 23 22 21 21 21 20 20 19 19 18 17 17 17 17 16 16 15 15 15 14 14 14 14 13 13 14 13 13 13 13 12 12 11 11 11 12 11 12 12 11 11 11 11 12 12 12 12 12 12 13 14 14 13 14 14 15 15 15 15 13 11 12 12 12 10 9 9 9 10 10 10 9 9 9 9 8 8 8 8 8
28 28 28 27 25 24 22 22 21 21 21 20 19 19 19 18 18 18 17 17 17 16 16 16 15 15 15 15 14 13 14 13 13 13 13 12 12 11 11 12 13 12 12 12 11 11 11 11 11 12 12 12 11 11 11 12 13 13 14 15 15 15 15 13 12 11 11 11 10 9 9 9 9 10 10 9 8 8 7 7 7 7 7 7 7
31 32 31 28 26 23 22 21 21 21 21 20 20 19 18 18 19 19 18 18 18 17 17 16 15 15 16 16 14 13 14 14 14 13 13 13 13 12 12 13 13 12 12 11 11 11 11 10 11 11 11 11 11 11 12 13 14 14 14 14 15 15 14 12 10 10 10 10 9 9 9 9 9 9 9 8 8 8 7 7 6 6 6 6 6
36 35 32 28 25 23 22 21 21 21 20 20 20 19 18 18 18 18 18 18 18 17 17 16 16 15 16 16 15 14 14 14 14 14 14 14 13 13 13 14 13 12 11 11 11 11 11 11 11 11 11 10 10 11 12 13 13 13 13 13 13 13 13 10 9 9 9 10 9 10 10 10 9 9 8 8 7 7 7 6 5 4 4 5 5
38 36 30 25 22 22 22 22 22 21 21 20 20 20 19 18 18 18 18 17 17 17 16 16 16 15 16 16 16 15 14 14 14 14 14 14 14 13 13 14 14 13 12 11 11 10 10 11 11 11 11 10 11 12 12 12 12 13 13 12 12 11 11 10 9 9 10 10 10 10 10 9 8 8 7 7 7 6 5 4 4 4 3 4 5
36 31 25 21 19 20 21 22 22 22 21 20 20 19 18 18 17 17 17 18 17 17 17 16 16 16 16 16 16 16 15 15 14 14 15 15 14 14 14 15 14 13 12 12 11 10 11 11 11 10 10 11 12 12 12 12 13 13 13 12 11 11 10 10 10 10 10 10 9 9 9 9 8 8 7 7 6 5 5 4 4 3 3 4 5
31 25 21 18 19 21 23 23 23 22 21 20 19 19 18 18 18 17 17 17 17 17 17 17 16 16 16 16 16 16 16 15 15 15 15 15 15 14 14 15 14 13 12 12 11 11 11 12 11 10 10 11 12 12 13 13 13 13 13 12 11 11 11 11 11 10 10 10 9 8 8 8 8 8 7 6 6 5 5 4 4 4 4 5 6
25 21 19 20 22 23 23 23 22 22 21 21 20 19 18 17 18 17 17 16 17 17 17 16 16 15 16 16 16 16 16 15 15 15 15 15 15 14 14 15 14 14 13 12 12 11 12 12 12 10 10 11 12 12 13 13 13 13 12 12 12 11 11 10 10 10 10 10 9 9 9 8 8 8 7 7 6 5 5 4 4 5 5 6 7
22 20 20 21 22 23 22 21 21 21 20 20 20 19 18 17 17 17 16 17 17 16 16 16 15 15 15 15 15 15 15 15 15 14 15 15 15 14 14 14 14 14 13 12 12 12 12 13 12 11 10 12 12 12 12 13 13 12 12 12 12 11 11 10 10 10 10 10 9 9 9 8 8 8 8 7 6 5 5 5 5 5 6 7 8
21 20 21 21 21 20 20 20 19 19 19 19 19 19 19 18 17 16 16 16 16 16 16 16 16 15 15 15 15 15 15 15 14 14 14 15 15 14 14 13 13 14 14 13 12 12 12 12 12 11 11 12 12 12 13 13 12 12 12 12 12 11 11 11 11 11 11 10 10 10 9 9 8 8 7 6 6 5 5 5 6 6 7 8 9
Wind_Direction
331 328 329 332 334 337 340 341 341 338 336 333 331 327 322 316 312 309 307 303 300 296 289 279 268 261 260 262 266 266 264 263 263 263 261 258 255 252 250 247 244 243 242 242 241 242 243 242 242 241 239 238 237 235 233 232 232 230 229 228 227 229 230 231 235 239 239 238 240 246 251 250 246 246 248 249 248 247 249 250 250 249 249 250 248
327 324 325 328 331 334 335 337 340 338 335 332 330 327 324 321 315 309 307 304 301 298 295 290 281 271 261 256 257 262 262 259 257 257 258 258 256 254 251 247 245 243 241 239 238 237 238 239 240 240 238 237 237 236 234 232 231 231 231 231 230 230 230 231 234 237 238 237 237 238 243 246 245 243 242 245 248 249 251 251 250 249 249 250 250
323 320 322 324 327 331 334 335 336 336 335 333 329 326 324 322 318 313 308 305 302 299 295 292 289 283 273 260 251 251 256 257 254 251 249 250 251 250 248 244 242 241 239 237 236 235 235 236 237 237 235 235 235 235 235 233 232 232 233 232 232 232 230 231 234 237 238 238 237 236 238 242 245 246 244 244 246 248 250 253 254 253 251 250 251
321 318 319 320 323 328 331 332 332 332 333 333 329 325 323 321 320 316 312 308 303 300 297 293 289 286 281 271 257 248 247 250 252 250 248 245 243 241 240 238 236 235 235 234 233 232 233 234 235 235 234 234 235 235 235 235 234 233 233 233 233 233 233 233 234 236 239 239 239 237 237 240 244 247 248 246 245 246 248 251 253 254 254 253 251
318 315 316 316 318 324 328 329 329 328 329 331 329 326 322 320 320 317 315 312 307 304 300 296 293 287 282 277 265 252 246 244 244 245 246 245 243 240 238 236 234 232 232 232 231 231 233 234 234 234 233 234 235 235 236 236 235 235 234 234 234 234 234 234 235 236 237 239 239 237 235 237 240 244 247 247 245 244 244 246 250 253 254 254 251
315 313 314 313 313 320 324 325 325 324 325 327 328 326 323 320 318 316 315 314 311 308 304 300 297 291 284 279 270 259 249 242 240 240 240 243 244 244 242 239 238 236 234 232 231 232 233 234 235 234 235 236 236 236 237 237 237 236 236 235 234 234 234 235 234 235 236 237 238 237 235 233 234 239 244 246 247 246 244 243 245 248 250 250 250
313 313 313 311 311 316 320 319 321 322 322 323 323 325 323 319 316 314 313 312 311 310 306 303 300 295 289 281 275 269 259 248 241 239 238 238 240 240 239 238 238 238 237 235 233 233 233 234 235 236 236 237 238 238 237 238 238 237 237 237 236 235 236 236 236 236 236 237 238 238 237 235 234 235 239 244 248 249 248 244 241 242 245 248 251
308 311 311 310 310 314 314 312 315 318 318 316 316 322 324 319 315 313 310 308 308 308 308 305 300 296 292 286 279 274 268 260 251 243 238 236 237 238 238 235 234 234 235 236 235 233 233 234 235 236 236 237 238 238 238 238 238 238 238 238 238 238 238 238 238 239 239 239 239 240 240 238 236 235 234 237 242 245 245 245 244 244 245 249 252
305 309 310 310 310 311 309 307 311 315 314 311 311 317 322 320 314 311 309 307 305 304 305 304 301 297 294 289 284 277 271 266 261 254 246 240 239 240 240 239 236 233 233 235 235 235 234 234 235 236 236 238 239 240 241 241 241 241 241 241 241 241 241 240 239 240 240 240 240 240 239 239 240 237 234 234 238 242 243 244 245 245 246 248 252
301 306 309 309 309 308 306 305 308 310 308 306 307 312 319 321 317 311 308 306 303 301 301 301 300 298 294 290 286 282 276 269 264 260 255 250 245 243 242 241 239 237 236 237 238 240 239 238 239 239 239 241 242 243 245 245 246 246 245 245 244 243 243 241 240 240 240 240 241 241 239 241 242 240 238 237 238 240 241 242 243 243 242 243 246
298 302 306 307 308 308 306 304 305 306 305 303 304 308 314 319 318 313 308 306 304 300 297 296 298 297 294 291 288 283 279 273 267 263 262 259 254 250 246 243 241 238 238 239 239 240 241 241 241 242 242 243 244 244 245 246 247 247 246 246 245 243 243 242 241 240 240 240 242 241 241 243 244 242 241 240 237 237 240 242 243 241 240 241 245
298 299 303 305 305 306 305 302 301 303 304 301 301 303 307 312 316 314 309 306 305 302 296 293 294 294 293 290 287 283 279 273 267 267 270 263 256 254 252 248 245 240 237 237 237 237 238 240 240 241 241 241 242 242 243 244 245 246 245 244 243 242 241 240 240 240 239 240 241 241 242 244 245 244 243 241 238 238 240 241 242 242 242 244 247
297 297 301 303 303 303 302 299 298 301 303 300 298 299 301 306 311 312 308 307 305 302 298 292 291 291 290 288 285 281 278 272 264 260 253 244 240 242 243 242 245 245 242 239 237 237 237 238 240 242 242 241 242 241 240 241 242 243 243 242 241 241 240 239 239 239 239 240 241 243 244 245 246 246 245 242 239 238 238 239 241 242 243 245 250
295 295 299 301 301 302 301 298 296 298 300 298 296 295 297 302 306 307 306 306 305 303 299 294 290 288 287 285 283 279 277 271 263 258 252 244 240 236 232 232 236 242 246 245 242 240 239 239 242 245 245 244 244 244 243 241 240 240 240 240 240 240 239 239 239 239 238 239 241 244 245 245 247 248 246 242 240 239 240 241 243 244 247 251 255
294 295 298 300 301 300 300 298 296 295 295 296 296 295 296 300 303 304 304 305 305 303 299 294 289 287 284 283 280 276 274 268 258 259 265 259 254 249 243 239 238 241 244 247 248 247 244 242 242 246 248 248 245 244 244 242 240 238 237 237 237 238 239 240 241 241 240 240 242 244 245 245 246 247 246 243 242 243 244 245 248 250 252 253 254
292 293 296 300 300 300 300 298 295 292 291 295 298 297 298 300 301 302 303 303 303 301 296 292 290 287 281 280 278 272 267 262 252 251 264 266 263 262 258 250 245 244 246 247 248 250 249 247 244 245 248 249 246 246 247 245 241 239 237 236 235 235 236 238 240 242 244 245 246 246 246 245 244 245 246 245 243 242 242 243 244 246 247 248 248
293 292 296 299 300 301 301 298 293 288 287 295 301 300 300 301 300 302 303 302 302 299 294 291 290 286 279 276 275 268 259 257 251 247 253 263 266 267 267 261 253 247 247 249 248 249 251 250 250 249 250 249 247 247 248 246 241 237 236 235 234 235 236 235 235 238 240 243 247 250 251 251 249 249 249 248 247 244 240 241 242 243 244 246 248
296 295 297 299 298 298 299 296 290 284 287 298 303 300 300 300 301 303 303 301 300 296 291 289 289 286 280 275 272 263 253 252 252 248 244 250 262 265 259 257 258 250 244 245 244 243 244 246 246 246 244 243 242 238 238 241 240 235 232 233 233 235 236 236 236 237 235 235 235 237 242 246 247 249 247 246 248 248 244 244 245 245 246 248 250
300 299 298 297 297 297 297 292 285 281 289 300 303 300 300 300 300 301 300 298 296 291 287 286 281 274 268 266 266 261 251 248 250 247 241 240 252 259 252 245 248 245 239 241 240 235 232 232 233 232 229 227 225 221 223 232 237 234 230 230 230 233 236 237 239 239 237 234 229 224 224 228 231 234 232 228 232 242 247 248 246 246 247 250 252
301 299 297 297 297 297 293 285 278 281 293 303 304 302 301 300 299 299 298 295 291 286 283 280 272 264 261 261 264 263 255 248 246 247 245 241 244 253 253 245 236 232 229 229 233 237 236 233 230 227 224 224 222 216 211 218 228 229 225 225 226 228 232 236 238 239 237 234 229 224 222 223 225 227 226 222 222 230 240 246 247 247 250 252 252
299 297 297 298 298 293 284 276 276 286 299 305 305 303 302 300 298 297 295 291 287 284 282 278 274 270 266 264 266 267 260 252 246 245 245 243 242 246 251 248 240 235 233 227 225 227 236 241 237 230 228 229 227 221 214 216 224 226 226 229 229 227 230 234 236 237 235 232 231 230 228 228 228 228 228 227 225 225 231 239 243 245 249 253 255
298 298 302 303 297 285 275 275 284 295 303 306 304 303 302 300 297 295 291 288 286 284 282 279 277 274 269 265 266 267 265 258 251 247 246 246 244 244 249 252 249 238 231 230 224 211 216 234 241 238 235 234 232 229 225 223 227 230 231 231 228 226 230 235 239 242 241 237 234 234 234 234 234 234 234 234 233 231 231 235 238 238 239 244 250
299 303 308 302 289 278 278 289 298 303 305 305 303 302 301 298 295 293 289 287 285 284 283 281 279 276 271 267 266 268 268 263 256 252 249 247 246 242 243 250 251 242 228 224 221 215 218 233 244 245 244 242 236 232 230 228 229 228 224 221 222 223 225 230 237 243 246 247 245 244 244 243 242 242 242 242 241 239 237 237 239 241 241 240 241
301 308 308 294 281 285 295 303 305 305 304 304 303 302 300 296 295 292 289 285 284 283 283 282 279 277 276 272 269 270 272 268 262 257 251 246 241 234 229 233 240 242 234 222 220 224 229 235 242 241 234 226 222 221 224 229 231 229 225 224 223 223 222 222 225 229 229 233 239 243 246 249 249 247 244 242 241 242 242 242 243 245 247 247 244
303 308 305 294 292 301 306 307 306 305 304 305 304 302 299 297 295 292 289 286 283 281 282 281 275 270 274 275 265 264 271 274 273 262 249 238 226 221 222 227 234 241 239 226 221 226 231 233 237 238 232 230 235 238 239 243 243 236 232 231 229 228 227 225 226 228 225 220 221 224 226 232 238 240 239 236 236 241 246 248 248 248 251 252 252
306 308 304 300 302 306 309 308 306 304 305 305 304 302 301 299 295 291 289 286 281 277 279 280 270 260 266 270 249 248 267 278 281 266 245 229 222 222 225 231 236 236 233 230 229 229 231 235 238 241 241 242 247 252 252 253 253 246 242 242 242 241 241 237 233 234 233 229 227 227 226 228 230 234 236 236 235 238 243 246 247 250 253 255 257
310 309 306 305 307 310 311 310 305 304 306 306 304 302 301 301 298 294 291 286 281 275 274 275 270 262 266 265 231 238 261 277 285 274 247 221 216 224 228 230 233 234 231 232 235 234 236 241 242 243 247 247 247 249 249 249 251 250 248 248 249 249 250 249 245 243 241 238 235 232 229 230 231 232 235 238 238 240 244 247 249 252 256 260 264
314 311 310 310 310 311 312 308 302 303 307 310 308 305 303 302 299 294 292 287 281 273 265 265 267 261 252 230 218 234 250 254 234 245 243 220 213 228 240 239 235 233 231 234 240 240 240 244 245 244 247 249 247 248 248 246 248 249 249 249 250 250 250 249 247 245 242 240 238 234 229 230 232 234 237 240 243 244 247 251 254 257 260 264 266
312 310 310 310 309 310 310 304 298 301 306 310 311 308 306 305 299 292 289 284 276 268 259 255 250 235 221 213 217 224 220 201 220 235 237 233 236 244 255 259 246 226 215 227 243 249 245 242 243 244 246 249 248 245 240 238 243 249 251 251 251 251 251 249 247 247 246 243 240 237 233 232 235 238 240 242 245 248 251 255 259 262 263 263 263
311 309 310 308 305 305 305 299 295 298 303 307 310 311 310 307 299 292 288 280 272 267 259 248 240 242 248 246 245 246 235 214 220 229 221 209 247 244 229 232 240 235 224 231 247 258 261 256 252 249 245 243 242 238 228 224 232 244 252 255 255 255 255 253 251 250 250 249 247 245 243 241 240 241 243 244 246 250 253 255 258 261 262 262 262
315 313 311 307 303 303 305 302 301 304 308 310 314 316 314 308 299 291 287 280 271 260 241 225 245 278 275 267 262 260 252 234 230 236 233 224 241 248 241 241 250 254 252 253 258 266 270 266 259 260 258 252 245 239 233 228 230 239 249 257 261 260 259 260 258 253 250 249 249 249 248 246 244 244 246 247 248 250 254 256 256 257 258 259 260
320 317 311 305 303 305 308 308 311 316 320 320 321 321 319 315 307 293 283 278 269 250 221 204 237 262 257 253 255 259 261 254 245 246 248 242 244 251 255 260 261 256 254 257 260 261 260 249 228 232 252 260 258 251 247 244 241 240 244 251 257 261 262 260 257 255 253 250 248 248 247 247 247 247 248 250 250 251 253 255 256 257 258 259 260
322 320 315 310 309 310 312 314 318 322 322 320 321 322 319 316 311 299 287 275 263 248 225 217 229 238 242 252 259 260 264 266 260 257 260 259 255 253 249 249 253 256 259 262 259 251 250 248 239 235 243 255 261 260 258 257 253 250 248 247 252 259 262 259 253 251 251 251 249 249 248 248 248 247 247 248 249 249 249 251 253 256 258 259 260
324 322 319 315 312 312 313 316 321 324 322 319 319 320 317 312 308 300 291 281 271 261 244 236 240 245 250 257 261 261 263 267 269 274 279 272 261 253 244 244 254 261 265 264 261 257 256 257 257 255 254 256 260 261 262 261 259 256 253 251 250 253 255 256 253 249 248 247 248 250 250 248 247 247 247 247 248 248 250 252 254 255 257 259 260
325 321 319 315 313 313 314 315 318 320 318 316 316 316 314 309 304 298 291 284 277 273 265 258 257 256 255 256 259 262 264 266 270 276 275 264 259 257 255 257 263 264 260 260 262 264 264 262 262 263 264 263 262 261 261 261 260 258 256 253 253 253 252 253 254 253 251 249 247 247 248 248 248 248 249 250 252 253 253 254 255 257 258 260 262
327 322 319 316 313 312 312 313 314 314 312 311 312 311 307 303 298 294 290 285 280 277 274 271 269 266 262 261 262 263 264 266 268 268 261 259 262 264 262 264 266 263 263 265 265 263 263 264 265 265 266 266 266 265 262 261 261 260 257 254 254 255 254 254 254 253 253 252 251 248 247 248 250 251 250 250 251 252 253 255 257 259 261 262 264
328 325 322 319 316 314 314 314 314 314 312 310 309 307 301 296 292 290 289 287 284 282 278 274 273 272 268 267 268 268 266 265 264 259 255 260 267 268 262 261 263 264 268 272 272 269 267 266 266 265 262 261 262 263 263 262 260 258 255 253 253 253 253 254 255 253 252 253 252 251 249 248 248 249 250 249 249 249 250 253 256 259 263 265 266
327 326 322 319 315 314 315 316 316 315 313 310 309 307 302 295 290 288 288 286 286 285 283 279 277 276 272 269 269 269 266 264 262 260 259 264 269 267 262 261 263 265 269 272 274 274 273 271 271 269 265 262 260 260 260 260 257 254 250 248 248 249 249 251 254 254 252 250 248 248 249 249 249 249 250 251 253 255 256 257 258 261 264 268 271
327 325 322 316 310 308 311 314 315 316 315 312 309 308 304 298 292 288 287 286 285 285 284 281 278 277 276 275 272 269 266 265 264 264 264 265 266 266 265 265 265 264 265 267 272 276 279 279 278 276 271 266 262 258 257 256 253 250 246 242 243 245 245 246 248 249 250 249 248 247 248 250 251 252 251 249 250 254 258 262 264 265 266 270 273
325 324 321 316 311 308 309 311 313 315 315 312 310 307 304 300 294 288 285 285 285 286 285 283 280 278 277 276 275 272 267 264 264 265 265 265 264 264 265 266 266 265 266 268 272 277 280 279 279 277 273 267 261 256 254 252 251 249 246 242 241 241 241 240 240 241 244 248 249 250 251 251 249 247 246 244 245 250 253 256 259 262 263 264 266
323 324 322 319 315 311 308 309 311 313 313 312 310 308 306 301 295 289 285 284 284 285 285 285 284 283 280 276 274 271 266 263 263 264 265 266 268 268 268 269 269 272 273 273 273 275 274 273 274 273 270 267 263 257 252 250 249 248 246 242 240 238 238 238 238 235 237 242 244 245 246 246 241 238 240 243 244 246 246 246 247 252 257 258 260
321 323 323 322 319 315 311 311 312 312 312 311 309 307 305 301 295 290 286 284 283 283 282 282 281 280 278 274 271 269 266 263 261 262 263 266 268 270 271 272 271 271 272 272 273 274 275 275 276 275 273 270 264 257 252 250 248 243 240 239 238 237 237 240 241 237 232 235 238 238 236 234 233 235 239 242 241 239 240 242 243 246 252 258 264
319 320 320 319 319 317 314 314 313 312 311 310 308 306 304 302 297 292 287 284 283 281 281 280 279 277 274 272 268 267 267 266 265 265 266 266 267 267 267 268 269 269 271 273 276 278 279 280 280 278 276 272 265 256 250 247 244 241 236 235 236 238 238 238 238 235 231 232 235 235 231 229 231 233 236 239 240 239 240 244 248 252 258 266 273
318 318 315 313 313 314 313 312 312 312 311 309 306 304 303 300 297 293 288 285 283 281 281 280 278 275 274 273 270 267 267 266 266 265 264 264 265 265 264 265 267 270 273 276 279 282 283 283 281 278 275 271 264 255 247 242 240 239 237 234 236 240 241 237 232 231 231 230 229 230 231 230 229 228 228 227 231 236 240 243 248 255 264 272 278
318 318 314 309 308 310 311 311 312 312 312 310 307 304 302 299 296 292 288 284 282 281 280 279 277 275 274 274 273 269 266 264 264 263 263 262 261 261 262 265 268 270 273 276 280 282 283 282 280 279 277 269 258 250 246 243 242 242 241 237 236 240 242 239 231 226 228 227 223 223 227 228 225 223 220 217 219 227 234 238 243 248 257 267 276
319 319 315 310 308 309 310 310 310 311 312 311 309 306 303 301 298 295 291 287 284 283 282 281 279 276 274 274 274 272 268 265 264 264 264 263 262 260 261 263 266 269 272 275 279 281 280 280 279 279 275 266 256 249 246 242 239 240 240 237 233 233 236 236 229 223 224 226 221 216 217 219 217 218 216 212 214 221 226 232 239 241 249 265 275
319 318 316 314 311 307 306 306 307 308 309 310 309 307 305 302 298 294 291 288 287 286 285 284 282 279 276 275 274 273 271 269 267 265 264 264 262 260 259 261 264 268 271 275 280 281 280 278 279 276 267 259 253 248 242 237 234 235 236 236 233 228 224 223 223 221 222 223 219 211 208 207 208 211 211 206 206 210 212 221 234 244 258 271 282
320 320 319 315 307 302 303 305 306 306 307 307 307 307 305 303 300 295 290 287 285 284 284 283 281 279 277 275 273 273 272 269 267 265 263 263 262 259 258 259 262 265 268 273 279 281 280 280 280 274 262 253 248 243 239 236 233 231 232 233 231 227 221 219 219 219 219 217 212 205 203 201 199 202 204 201 199 200 204 214 231 248 264 275 287
322 322 317 310 304 303 305 306 306 305 306 305 305 304 302 301 300 297 292 287 284 282 281 281 279 276 274 273 272 272 270 269 268 266 264 263 261 258 256 256 258 262 265 270 274 277 278 279 280 274 259 249 244 239 234 232 230 228 228 227 225 224 222 220 217 213 211 209 205 200 200 198 192 191 194 196 198 203 209 224 242 259 273 287 299
323 320 313 309 309 309 310 309 308 306 305 304 304 303 301 299 297 296 294 290 285 282 280 280 278 276 274 273 272 272 272 271 270 268 265 264 261 257 255 255 256 257 259 262 266 269 272 275 277 273 260 249 243 236 231 228 225 223 222 221 221 220 219 217 212 207 204 203 201 199 196 193 189 189 192 197 204 214 226 242 258 273 285 297 305
322 318 315 315 315 314 313 313 311 308 306 304 302 300 299 298 297 295 292 288 284 282 280 278 277 276 275 274 273 273 273 273 272 270 267 265 263 260 257 254 253 254 255 256 259 263 267 271 273 269 259 249 240 232 227 224 221 217 216 216 217 216 213 209 205 201 198 198 197 195 192 191 192 195 200 206 216 231 245 257 271 286 296 301 303
Height
1468 1466 1464 1462 1460 1458 1457 1455 1454 1452 1450 1448 1446 1444 1443 1441 1440 1438 1436 1435 1433 1431 1430 1429 1427 1426 1426 1426 1426 1426 1426 1426 1426 1426 1425 1425 1426 1427 1427 1428 1429 1430 1431 1432 1434 1436 1437 1439 1441 1444 1446 1449 1451 1453 1456 1459 1461 1463 1464 1466 1468 1470 1472 1473 1473 1474 1477 1481 1482 1482 1482 1484 1485 1485 1487 1488 1489 1491 1492 1495 1497 1499 1500 1501 1503
1467 1465 1462 1460 1458 1456 1455 1453 1451 1450 1448 1447 1445 1443 1441 1439 1438 1436 1434 1433 1431 1429 1428 1427 1426 1425 1424 1423 1423 1423 1423 1423 1423 1423 1422 1422 1422 1422 1423 1424 1425 1426 1427 1428 1429 1431 1433 1435 1437 1439 1442 1444 1446 1449 1451 1454 1456 1457 1459 1461 1463 1465 1468 1469 1470 1470 1472 1476 1478 1479 1479 1479 1480 1481 1482 1483 1485 1487 1488 1490 1492 1494 1496 1497 1498
1466 1464 1461 1459 1457 1455 1453 1451 1449 1448 1446 1444 1443 1441 1439 1437 1435 1434 1432 1431 1429 1428 1426 1424 1424 1423 1422 1421 1420 1420 1420 1420 1420 1420 1420 1420 1420 1420 1420 1420 1421 1422 1423 1424 1426 1427 1429 1431 1433 1435 1437 1440 1442 1445 1447 1449 1451 1453 1454 1456 1458 1461 1463 1465 1466 1467 1468 1471 1474 1476 1476 1476 1476 1477 1478 1480 1481 1483 1484 1486 1487 1489 1491 1492 1493
1465 1463 1460 1458 1455 1453 1451 1449 1447 1445 1444 1442 1440 1439 1437 1435 1433 1432 1430 1429 1427 1426 1424 1423 1421 1420 1419 1418 1417 1417 1416 1416 1417 1417 1417 1417 1417 1418 1418 1418 1419 1419 1420 1422 1423 1424 1426 1427 1429 1431 1434 1436 1438 1441 1443 1445 1447 1449 1450 1453 1455 1457 1459 1461 1462 1464 1465 1467 1469 1471 1473 1473 1473 1473 1475 1476 1477 1478 1480 1482 1483 1484 1486 1487 1489
1463 1461 1459 1456 1454 1452 1450 1447 1445 1443 1441 1440 1438 1436 1434 1433 1431 1430 1428 1426 1425 1424 1422 1421 1419 1418 1417 1416 1415 1415 1414 1413 1413 1413 1413 1414 1414 1414 1415 1415 1416 1417 1418 1419 1420 1421 1422 1424 1426 1428 1430 1432 1434 1436 1439 1441 1443 1445 1446 1448 1450 1453 1455 1457 1458 1460 1461 1462 1464 1467 1469 1470 1470 1470 1471 1472 1473 1474 1476 1477 1479 1480 1481 1482 1483
1461 1460 1457 1455 1453 1450 1448 1446 1444 1442 1439 1438 1436 1434 1432 1430 1429 1428 1426 1424 1423 1421 1420 1418 1417 1416 1415 1414 1413 1412 1412 1411 1410 1410 1410 1410 1410 1411 1411 1412 1412 1413 1414 1416 1417 1418 1419 1421 1423 1425 1426 1428 1430 1432 1435 1437 1439 1440 1442 1444 1446 1448 1450 1452 1454 1455 1457 1458 1460 1462 1464 1465 1466 1466 1466 1467 1468 1469 1471 1472 1474 1475 1476 1477 1479
1459 1457 1455 1454 1451 1449 1447 1445 1442 1440 1438 1436 1434 1432 1430 1428 1426 1425 1424 1422 1420 1419 1418 1416 1415 1414 1412 1411 1410 1409 1409 1408 1408 1407 1407 1407 1407 1407 1407 1408 1409 1410 1411 1412 1413 1415 1416 1417 1419 1421 1422 1424 1426 1428 1431 1433 1435 1437 1438 1439 1441 1443 1445 1447 1449 1451 1452 1453 1455 1456 1458 1461 1462 1463 1463 1464 1464 1465 1465 1467 1468 1470 1471 1473 1474
1457 1455 1453 1451 1449 1447 1446 1443 1441 1439 1436 1434 1432 1430 1429 1426 1424 1423 1421 1420 1419 1417 1415 1414 1413 1411 1410 1409 1408 1407 1406 1405 1405 1404 1404 1404 1404 1404 1404 1405 1405 1406 1407 1408 1410 1411 1412 1414 1415 1417 1418 1420 1422 1424 1427 1429 1431 1433 1434 1435 1437 1438 1440 1442 1444 1446 1447 1448 1450 1451 1453 1455 1457 1458 1460 1460 1459 1459 1460 1461 1463 1465 1467 1468 1470
1456 1453 1451 1449 1447 1445 1444 1441 1439 1437 1435 1432 1430 1428 1427 1425 1422 1420 1419 1418 1416 1415 1413 1412 1410 1409 1408 1407 1405 1404 1403 1402 1402 1402 1401 1401 1401 1401 1401 1402 1402 1403 1404 1405 1406 1407 1409 1410 1412 1413 1415 1417 1418 1420 1423 1425 1427 1428 1429 1431 1432 1433 1435 1437 1439 1440 1442 1443 1444 1446 1448 1449 1450 1452 1454 1455 1454 1455 1456 1458 1458 1460 1462 1464 1466
1453 1451 1449 1446 1445 1443 1441 1439 1437 1435 1433 1430 1428 1426 1424 1422 1420 1418 1416 1415 1413 1412 1411 1409 1408 1406 1405 1404 1403 1402 1401 1400 1399 1399 1399 1398 1398 1398 1398 1399 1399 1400 1401 1402 1403 1404 1405 1407 1409 1410 1412 1413 1415 1417 1418 1420 1422 1424 1425 1426 1427 1428 1430 1432 1433 1435 1437 1438 1439 1441 1442 1443 1444 1446 1448 1450 1451 1452 1453 1454 1455 1456 1458 1460 1461
1450 1448 1446 1444 1442 1440 1438 1436 1434 1432 1430 1428 1426 1424 1422 1420 1418 1416 1414 1411 1410 1409 1408 1406 1405 1404 1402 1401 1400 1399 1399 1398 1397 1397 1396 1396 1395 1395 1395 1396 1396 1397 1398 1399 1400 1401 1402 1404 1405 1407 1408 1410 1411 1413 1414 1416 1418 1419 1420 1421 1423 1424 1425 1427 1428 1430 1431 1433 1434 1436 1437 1437 1439 1442 1444 1446 1448 1449 1449 1450 1451 1453 1454 1454 1456
1446 1445 1443 1441 1439 1438 1436 1433 1431 1429 1428 1425 1423 1421 1419 1417 1415 1413 1411 1409 1407 1405 1404 1403 1402 1401 1400 1399 1398 1397 1396 1396 1395 1395 1395 1394 1393 1393 1393 1393 1394 1394 1395 1396 1397 1398 1399 1400 1401 1403 1404 1406 1407 1409 1410 1412 1413 1415 1416 1417 1418 1420 1421 1423 1424 1425 1427 1428 1429 1430 1431 1433 1436 1438 1440 1442 1443 1445 1446 1447 1447 1448 1449 1450 1451
1443 1441 1440 1438 1436 1435 1433 1431 1428 1426 1424 1422 1420 1418 1416 1414 1412 1410 1408 1406 1404 1402 1400 1400 1399 1398 1397 1396 1395 1394 1394 1393 1393 1393 1393 1392 1391 1391 1391 1391 1391 1392 1392 1393 1394 1395 1396 1397 1398 1399 1400 1402 1403 1405 1406 1408 1409 1411 1412 1413 1414 1416 1417 1419 1420 1422 1423 1424 1425 1426 1428 1430 1432 1434 1436 1438 1440 1441 1441 1442 1443 1444 1446 1446 1448
1439 1437 1436 1435 1433 1431 1430 1427 1425 1423 1421 1420 1417 1416 1414 1412 1409 1407 1405 1403 1401 1398 1397 1396 1395 1395 1394 1393 1392 1392 1391 1391 1391 1390 1390 1389 1388 1389 1389 1389 1389 1389 1390 1390 1391 1392 1393 1394 1394 1395 1397 1399 1400 1402 1403 1404 1406 1407 1408 1410 1411 1412 1413 1415 1416 1418 1419 1420 1421 1422 1424 1427 1428 1431 1433 1435 1436 1437 1437 1438 1440 1441 1442 1444 1445
1435 1434 1432 1431 1430 1428 1426 1424 1422 1419 1418 1416 1414 1412 1411 1408 1406 1404 1402 1400 1397 1395 1393 1392 1391 1391 1390 1389 1389 1388 1388 1388 1388 1388 1387 1386 1385 1386 1386 1387 1387 1387 1387 1388 1388 1389 1390 1391 1392 1392 1394 1396 1397 1398 1400 1401 1402 1404 1405 1406 1408 1409 1410 1411 1413 1414 1415 1417 1418 1419 1421 1423 1425 1427 1430 1432 1433 1434 1435 1436 1437 1438 1439 1441 1442
1432 1431 1429 1427 1426 1424 1422 1420 1418 1415 1414 1412 1410 1408 1407 1404 1402 1400 1398 1396 1394 1392 1390 1388 1387 1387 1387 1386 1385 1385 1385 1385 1385 1385 1384 1383 1383 1383 1383 1384 1384 1384 1384 1385 1386 1387 1387 1389 1389 1390 1391 1393 1394 1395 1397 1398 1399 1400 1402 1403 1404 1406 1407 1408 1410 1411 1413 1414 1415 1416 1418 1420 1422 1424 1426 1428 1429 1431 1432 1433 1434 1435 1435 1436 1437
1429 1427 1426 1424 1422 1420 1418 1416 1414 1412 1410 1408 1406 1404 1402 1400 1398 1397 1394 1392 1390 1388 1386 1385 1384 1383 1383 1382 1382 1382 1382 1382 1382 1382 1382 1381 1380 1381 1381 1381 1381 1382 1382 1383 1384 1384 1385 1386 1387 1388 1389 1390 1391 1393 1394 1395 1396 1397 1398 1400 1401 1402 1404 1405 1407 1408 1410 1411 1413 1414 1415 1417 1419 1420 1422 1424 1425 1427 1429 1429 1429 1431 1432 1432 1432
1425 1424 1422 1420 1418 1416 1414 1412 1410 1407 1406 1404 1402 1400 1398 1396 1394 1393 1391 1388 1386 1384 1383 1381 1381 1380 1379 1379 1379 1379 1379 1379 1379 1379 1379 1379 1378 1379 1380 1379 1379 1380 1380 1381 1382 1383 1383 1384 1385 1386 1387 1388 1389 1391 1391 1392 1393 1394 1395 1397 1398 1399 1400 1402 1403 1405 1407 1409 1410 1411 1413 1414 1416 1417 1419 1420 1421 1423 1424 1425 1426 1428 1428 1428 1428
1422 1420 1418 1416 1414 1412 1410 1408 1405 1403 1402 1400 1399 1396 1394 1392 1390 1389 1387 1384 1382 1381 1379 1378 1377 1377 1376 1376 1376 1376 1375 1376 1376 1376 1377 1377 1376 1377 1378 1377 1377 1378 1378 1379 1380 1381 1382 1383 1383 1384 1385 1386 1387 1389 1390 1390 1390 1392 1393 1394 1395 1397 1398 1399 1400 1402 1404 1406 1407 1409 1410 1411 1413 1414 1416 1417 1419 1419 1420 1422 1424 1424 1424 1425 1426
1418 1416 1414 1412 1410 1408 1405 1403 1401 1399 1398 1397 1395 1392 1390 1388 1386 1384 1382 1380 1379 1377 1376 1375 1374 1374 1374 1373 1373 1373 1373 1373 1373 1373 1374 1374 1374 1375 1375 1376 1376 1376 1377 1377 1378 1379 1380 1380 1381 1382 1383 1385 1386 1387 1388 1388 1388 1389 1391 1392 1393 1395 1396 1397 1398 1400 1401 1403 1405 1406 1408 1409 1410 1412 1413 1415 1416 1417 1418 1419 1420 1421 1421 1422 1424
1414 1412 1409 1407 1405 1403 1401 1399 1397 1396 1395 1393 1390 1388 1386 1384 1382 1380 1378 1377 1375 1374 1373 1372 1371 1371 1371 1370 1370 1370 1370 1371 1371 1371 1371 1372 1372 1373 1373 1373 1374 1374 1375 1376 1376 1377 1377 1377 1378 1380 1381 1382 1384 1385 1386 1386 1386 1387 1388 1389 1391 1392 1393 1394 1396 1397 1399 1401 1402 1404 1405 1406 1408 1409 1411 1412 1414 1415 1415 1416 1417 1418 1419 1420 1421
1410 1408 1405 1402 1400 1398 1396 1394 1393 1392 1391 1389 1386 1383 1382 1380 1378 1377 1375 1373 1372 1371 1370 1370 1369 1368 1368 1368 1367 1368 1368 1368 1368 1368 1369 1369 1370 1371 1371 1371 1372 1373 1373 1374 1374 1375 1375 1375 1376 1378 1379 1380 1381 1382 1383 1384 1385 1386 1387 1388 1389 1390 1391 1392 1393 1395 1396 1398 1400 1401 1402 1404 1405 1406 1408 1409 1411 1412 1413 1414 1415 1416 1417 1417 1418
1406 1403 1401 1398 1396 1394 1392 1390 1389 1388 1387 1384 1382 1379 1378 1376 1375 1373 1372 1371 1369 1369 1368 1367 1367 1366 1366 1365 1365 1365 1366 1366 1366 1366 1367 1367 1368 1369 1369 1369 1370 1370 1371 1372 1372 1373 1373 1374 1375 1377 1378 1378 1379 1380 1381 1382 1383 1384 1385 1386 1387 1388 1389 1391 1392 1393 1394 1395 1397 1398 1400 1401 1402 1404 1405 1406 1407 1408 1409 1410 1412 1413 1414 1415 1415
1401 1399 1397 1394 1392 1390 1388 1387 1386 1384 1382 1380 1378 1376 1374 1373 1372 1370 1369 1368 1367 1366 1366 1365 1365 1364 1364 1363 1363 1363 1364 1364 1365 1365 1365 1366 1366 1367 1368 1368 1368 1368 1369 1370 1370 1371 1372 1373 1374 1375 1376 1377 1377 1378 1379 1380 1381 1382 1383 1384 1385 1386 1388 1389 1390 1391 1393 1394 1395 1396 1397 1399 1400 1401 1402 1402 1403 1404 1406 1408 1409 1410 1410 1411 1412
1398 1396 1394 1391 1389 1387 1385 1383 1382 1380 1378 1377 1374 1372 1371 1370 1368 1368 1367 1366 1365 1364 1364 1364 1363 1363 1362 1362 1362 1362 1362 1362 1363 1363 1364 1364 1365 1365 1366 1366 1366 1367 1367 1368 1369 1370 1371 1371 1372 1373 1374 1375 1375 1376 1378 1378 1379 1380 1381 1382 1383 1384 1386 1387 1388 1389 1391 1392 1393 1394 1395 1396 1397 1398 1399 1400 1401 1402 1403 1404 1405 1406 1406 1407 1408
1394 1392 1390 1388 1386 1384 1382 1380 1378 1376 1375 1373 1371 1369 1368 1367 1366 1365 1364 1364 1363 1362 1362 1362 1362 1361 1361 1361 1361 1361 1361 1361 1362 1362 1362 1363 1363 1364 1364 1364 1365 1365 1366 1367 1368 1368 1369 1370 1370 1371 1372 1373 1374 1375 1376 1377 1378 1378 1379 1380 1381 1382 1383 1385 1386 1387 1388 1390 1391 1392 1393 1393 1394 1395 1396 1397 1399 1400 1400 1401 1402 1402 1403 1403 1404
1391 1389 1387 1384 1382 1381 1379 1376 1375 1373 1372 1370 1368 1367 1365 1364 1363 1362 1362 1361 1361 1360 1360 1360 1360 1360 1359 1359 1360 1360 1360 1360 1361 1361 1361 1362 1362 1362 1363 1363 1363 1364 1365 1365 1366 1366 1367 1368 1369 1370 1370 1371 1372 1373 1374 1375 1375 1376 1377 1378 1379 1380 1381 1382 1384 1385 1386 1387 1388 1389 1390 1390 1391 1392 1393 1394 1396 1397 1397 1398 1398 1399 1400 1400 1401
1388 1386 1383 1381 1379 1377 1375 1373 1372 1371 1369 1367 1366 1365 1363 1363 1361 1360 1360 1359 1359 1359 1359 1359 1359 1359 1358 1359 1359 1359 1360 1360 1360 1360 1360 1361 1361 1361 1361 1362 1362 1363 1363 1363 1364 1364 1365 1366 1367 1368 1369 1369 1370 1371 1372 1373 1373 1374 1375 1376 1377 1378 1379 1380 1381 1382 1383 1384 1386 1387 1388 1388 1388 1389 1390 1391 1393 1394 1394 1394 1395 1396 1397 1397 1398
1385 1383 1380 1378 1376 1375 1373 1371 1370 1368 1367 1365 1364 1363 1362 1361 1359 1358 1358 1357 1357 1357 1357 1357 1358 1357 1357 1358 1358 1358 1359 1359 1360 1360 1360 1360 1360 1361 1361 1361 1361 1361 1362 1362 1362 1363 1364 1365 1365 1366 1367 1368 1369 1369 1370 1371 1371 1372 1373 1374 1374 1375 1376 1377 1378 1379 1380 1381 1382 1383 1385 1386 1386 1387 1388 1389 1390 1390 1391 1391 1392 1392 1393 1394 1395
1382 1379 1377 1376 1374 1372 1371 1370 1368 1367 1365 1363 1362 1360 1359 1358 1357 1356 1355 1355 1355 1355 1355 1356 1356 1357 1356 1356 1357 1357 1358 1358 1358 1359 1359 1360 1360 1359 1360 1359 1359 1360 1360 1361 1361 1361 1362 1363 1364 1364 1365 1366 1367 1368 1369 1369 1370 1370 1371 1371 1372 1373 1373 1374 1375 1376 1377 1378 1379 1380 1381 1382 1383 1384 1384 1386 1387 1387 1387 1388 1389 1389 1390 1390 1391
1379 1376 1374 1373 1371 1370 1368 1367 1366 1364 1363 1361 1360 1358 1357 1356 1355 1354 1354 1353 1353 1354 1354 1355 1356 1356 1355 1355 1355 1356 1356 1357 1357 1357 1358 1359 1358 1358 1358 1358 1358 1358 1359 1359 1359 1360 1360 1361 1362 1362 1363 1364 1365 1366 1367 1368 1368 1368 1369 1369 1370 1371 1371 1372 1373 1373 1374 1375 1376 1377 1378 1379 1380 1380 1381 1382 1383 1383 1383 1384 1385 1386 1386 1387 1387
1377 1374 1372 1371 1369 1367 1366 1365 1363 1362 1361 1360 1358 1357 1355 1354 1353 1353 1352 1352 1352 1352 1353 1354 1355 1354 1353 1353 1353 1354 1354 1355 1355 1356 1357 1357 1356 1356 1356 1357 1357 1357 1357 1357 1358 1359 1359 1359 1360 1361 1362 1362 1363 1364 1365 1366 1366 1367 1367 1367 1368 1368 1369 1370 1370 1371 1372 1373 1373 1374 1375 1375 1376 1377 1377 1378 1379 1380 1380 1381 1381 1382 1383 1383 1384
1375 1372 1370 1368 1367 1366 1364 1363 1362 1361 1359 1358 1357 1356 1354 1353 1352 1351 1351 1351 1351 1351 1352 1352 1352 1351 1351 1352 1352 1352 1353 1353 1353 1354 1355 1355 1354 1354 1355 1355 1354 1354 1355 1356 1357 1357 1358 1358 1359 1360 1361 1361 1362 1362 1363 1364 1364 1365 1365 1365 1365 1366 1367 1367 1368 1369 1369 1370 1370 1371 1372 1373 1373 1374 1375 1375 1376 1377 1378 1378 1378 1379 1380 1380 1381
1374 1371 1369 1367 1366 1364 1363 1362 1361 1359 1358 1357 1356 1354 1353 1352 1351 1350 1350 1349 1350 1350 1350 1350 1350 1350 1350 1350 1351 1351 1351 1351 1351 1352 1353 1353 1352 1352 1352 1352 1352 1353 1354 1354 1355 1356 1356 1357 1358 1358 1359 1360 1360 1360 1361 1361 1362 1362 1363 1363 1363 1364 1364 1364 1365 1366 1366 1367 1368 1368 1369 1370 1371 1371 1372 1373 1373 1374 1375 1375 1375 1376 1376 1377 1377
1372 1370 1368 1366 1365 1363 1362 1360 1359 1358 1357 1355 1354 1353 1351 1351 1350 1349 1349 1348 1348 1348 1348 1348 1348 1348 1349 1349 1349 1349 1349 1349 1349 1350 1350 1350 1349 1350 1350 1350 1351 1351 1352 1353 1353 1354 1354 1355 1356 1356 1357 1357 1358 1358 1358 1359 1359 1359 1360 1360 1360 1361 1361 1361 1362 1363 1363 1364 1365 1365 1366 1367 1367 1368 1369 1370 1370 1371 1372 1372 1372 1373 1373 1374 1374
1370 1368 1366 1365 1363 1362 1360 1359 1357 1356 1355 1353 1352 1351 1350 1349 1348 1348 1347 1347 1346 1346 1346 1346 1346 1346 1346 1346 1346 1346 1346 1347 1347 1347 1347 1347 1347 1348 1348 1348 1349 1349 1350 1350 1351 1352 1353 1353 1353 1354 1354 1354 1355 1355 1356 1356 1356 1356 1357 1357 1357 1358 1358 1358 1359 1360 1360 1361 1362 1362 1363 1364 1365 1365 1366 1367 1368 1368 1368 1369 1369 1369 1370 1371 1371
1368 1366 1364 1363 1361 1360 1358 1357 1355 1354 1352 1351 1350 1348 1347 1347 1346 1346 1345 1345 1344 1344 1344 1344 1344 1344 1344 1344 1344 1344 1344 1344 1344 1345 1345 1344 1344 1346 1347 1346 1347 1347 1348 1348 1349 1350 1350 1351 1351 1351 1352 1352 1352 1352 1352 1353 1354 1354 1354 1354 1354 1355 1355 1356 1356 1357 1358 1358 1359 1360 1360 1361 1362 1363 1363 1364 1365 1365 1365 1366 1366 1366 1367 1367 1368
1366 1364 1362 1361 1359 1357 1356 1354 1353 1352 1350 1348 1347 1346 1345 1344 1344 1343 1343 1343 1342 1342 1342 1342 1342 1342 1341 1342 1342 1342 1342 1342 1342 1342 1342 1342 1343 1344 1344 1344 1345 1345 1346 1346 1346 1347 1348 1348 1348 1349 1349 1349 1349 1349 1349 1350 1351 1351 1352 1352 1352 1353 1353 1354 1354 1355 1355 1356 1357 1357 1358 1359 1359 1360 1361 1361 1362 1362 1362 1363 1364 1364 1364 1365 1365
1363 1361 1360 1359 1357 1355 1353 1352 1350 1349 1347 1346 1345 1343 1342 1342 1341 1341 1341 1340 1340 1340 1340 1340 1340 1340 1339 1339 1339 1339 1339 1339 1339 1340 1340 1340 1341 1341 1342 1342 1343 1344 1344 1344 1344 1344 1345 1345 1345 1346 1346 1346 1347 1347 1347 1347 1348 1349 1349 1350 1350 1350 1351 1352 1352 1352 1353 1353 1354 1355 1356 1356 1357 1358 1359 1359 1359 1359 1360 1361 1361 1362 1362 1362 1363
1361 1359 1357 1356 1355 1353 1351 1349 1348 1346 1345 1344 1342 1341 1340 1339 1339 1339 1338 1338 1338 1338 1338 1338 1338 1337 1337 1337 1337 1337 1337 1337 1337 1338 1338 1338 1339 1339 1340 1341 1341 1341 1342 1342 1342 1342 1343 1343 1343 1343 1344 1344 1344 1344 1344 1345 1345 1346 1346 1347 1348 1348 1349 1349 1350 1350 1351 1351 1352 1353 1354 1355 1355 1356 1356 1357 1357 1358 1358 1359 1359 1359 1360 1360 1360
1359 1357 1355 1353 1352 1350 1348 1347 1345 1344 1342 1341 1340 1339 1338 1337 1336 1336 1336 1336 1336 1335 1335 1335 1335 1335 1335 1335 1335 1335 1335 1335 1336 1336 1336 1336 1337 1337 1338 1338 1339 1339 1340 1340 1340 1341 1341 1341 1341 1341 1341 1341 1342 1342 1342 1342 1342 1343 1344 1344 1345 1346 1346 1346 1348 1349 1349 1349 1350 1351 1352 1353 1353 1354 1354 1355 1355 1356 1357 1357 1357 1358 1358 1358 1358
1356 1354 1352 1350 1349 1347 1345 1344 1342 1341 1340 1339 1338 1337 1336 1335 1334 1334 1333 1333 1333 1333 1333 1333 1333 1333 1333 1333 1333 1333 1333 1333 1334 1334 1334 1334 1335 1335 1335 1336 1337 1337 1338 1338 1339 1339 1339 1339 1339 1339 1339 1339 1339 1339 1339 1340 1340 1341 1342 1342 1342 1343 1344 1344 1345 1347 1347 1348 1348 1349 1350 1351 1352 1352 1352 1353 1354 1354 1355 1355 1356 1356 1356 1356 1356
1353 1351 1349 1347 1345 1344 1342 1341 1339 1338 1337 1336 1335 1334 1333 1332 1332 1331 1331 1330 1330 1330 1330 1330 1331 1331 1330 1331 1331 1331 1331 1331 1331 1332 1332 1332 1333 1333 1334 1334 1335 1336 1336 1336 1337 1337 1337 1337 1337 1336 1336 1336 1337 1337 1337 1338 1338 1339 1340 1340 1340 1341 1342 1343 1344 1345 1345 1346 1347 1348 1348 1349 1350 1350 1351 1351 1352 1352 1353 1353 1353 1354 1354 1354 1355
1350 1348 1346 1344 1342 1341 1339 1338 1337 1335 1334 1333 1332 1331 1331 1330 1329 1328 1328 1328 1327 1328 1328 1328 1328 1328 1328 1328 1329 1329 1329 1329 1329 1329 1330 1330 1331 1331 1332 1332 1333 1333 1334 1334 1334 1334 1334 1334 1334 1334 1334 1334 1334 1335 1335 1335 1336 1337 1337 1338 1339 1339 1340 1342 1343 1343 1344 1345 1345 1346 1347 1347 1348 1349 1349 1350 1350 1350 1351 1351 1352 1352 1353 1353 1353
1347 1344 1342 1340 1338 1337 1336 1335 1334 1333 1331 1330 1329 1328 1328 1327 1326 1325 1325 1325 1325 1325 1325 1325 1325 1325 1325 1325 1326 1326 1327 1327 1327 1327 1328 1328 1329 1329 1330 1330 1330 1331 1331 1331 1332 1332 1332 1331 1331 1331 1331 1332 1332 1332 1333 1333 1334 1335 1335 1337 1338 1338 1339 1340 1341 1342 1342 1343 1344 1345 1345 1346 1346 1347 1348 1348 1349 1349 1349 1350 1351 1351 1352 1352 1352
1343 1340 1337 1336 1334 1333 1332 1332 1331 1329 1328 1327 1326 1325 1324 1324 1323 1322 1322 1322 1322 1322 1322 1322 1322 1322 1322 1322 1322 1323 1324 1324 1324 1325 1325 1325 1326 1327 1327 1327 1328 1329 1329 1329 1329 1329 1329 1329 1329 1329 1329 1329 1330 1330 1331 1332 1332 1333 1334 1335 1336 1337 1338 1339 1339 1340 1341 1341 1342 1343 1344 1344 1345 1346 1346 1347 1348 1348 1348 1349 1350 1350 1351 1351 1351
1339 1336 1334 1332 1331 1330 1329 1328 1327 1326 1325 1324 1323 1322 1321 1321 1320 1320 1319 1319 1319 1319 1319 1319 1319 1319 1319 1319 1320 1320 1320 1321 1322 1322 1322 1323 1324 1324 1325 1325 1326 1326 1326 1327 1327 1327 1327 1327 1327 1327 1327 1328 1328 1329 1329 1330 1331 1331 1332 1333 1334 1336 1337 1337 1338 1339 1339 1340 1341 1342 1342 1343 1344 1344 1345 1346 1347 1347 1348 1349 1349 1349 1350 1350 1350
1336 1333 1331 1330 1329 1328 1326 1325 1324 1323 1322 1321 1320 1319 1318 1317 1317 1317 1316 1316 1316 1316 1316 1316 1316 1316 1316 1317 1317 1317 1318 1318 1319 1319 1320 1320 1321 1322 1322 1323 1323 1323 1324 1324 1324 1324 1324 1324 1324 1325 1326 1326 1326 1327 1327 1328 1329 1330 1331 1332 1333 1334 1335 1336 1336 1337 1338 1339 1339 1340 1341 1342 1343 1344 1344 1345 1346 1346 1347 1348 1348 1348 1348 1348 1348
1333 1331 1329 1328 1327 1325 1323 1322 1321 1320 1319 1318 1317 1316 1315 1314 1314 1314 1313 1313 1313 1313 1313 1314 1314 1314 1314 1314 1314 1315 1315 1316 1316 1317 1317 1318 1319 1319 1320 1320 1321 1321 1321 1322 1322 1322 1322 1322 1322 1323 1323 1324 1324 1325 1326 1327 1328 1328 1329 1330 1331 1332 1333 1334 1335 1336 1337 1337 1338 1339 1340 1341 1342 1343 1344 1345 1345 1346 1346 1347 1347 1347 1347 1347 1347
1330 1328 1327 1325 1324 1322 1320 1319 1318 1317 1316 1315 1314 1313 1312 1312 1311 1311 1310 1310 1310 1310 1311 1311 1311 1311 1311 1312 1312 1312 1313 1313 1314 1314 1315 1315 1316 1317 1317 1318 1318 1319 1319 1320 1320 1320 1320 1320 1320 1321 1321 1322 1322 1323 1324 1325 1326 1327 1328 1329 1330 1331 1332 1333 1334 1334 1335 1336 1337 1338 1339 1340 1341 1342 1343 1344 1344 1345 1345 1346 1346 1346 1346 1346 1346
1327 1326 1324 1323 1321 1319 1318 1316 1315 1314 1313 1312 1311 1310 1309 1309 1308 1308 1307 1307 1307 1307 1308 1308 1308 1308 1309 1309 1309 1310 1310 1310 1311 1311 1312 1312 1313 1314 1315 1315 1316 1316 1317 1318 1318 1319 1319 1319 1319 1319 1320 1320 1321 1322 1323 1324 1325 1326 1327 1328 1329 1330 1331 1332 1332 1333 1335 1335 1337 1338 1339 1340 1341 1342 1342 1343 1343 1344 1344 1345 1345 1345 1345 1345 1344